Погода в Джембере

Индонезия     8°08′56″S   113°42′43″E
темп.,
°C
ветер,
м/с
пор.,
м/с
влажн.,
%
обл.,
%
осадки,
мм/ч
давл.,
гПа
погр.,
м
24 мая, вт
вт2401:00+21всв1191100 0.0 101023
04:00+21всв119060 0.0 101025
07:00+23в127916 0.0 1011104
10:00+31ю1251100 0.0 10111310
13:00+30юз335999 0.0 10091029
16:00+27юз118598 1.6 100944
19:00+24в1194100 2.2 101229
22:00+23в119565 0.0 101331
25 мая, ср
ср2501:00+22всв119779 0.0 101227
04:00+22всв119781 0.1 101225
07:00+24всв129120 0.1 1012162
10:00+32ююв125591 0.0 10111110
13:00+28юз3481100 1.3 1009322
16:00+23всв2499100 38.2 1008152
19:00+23вюв0097100 45.1 101213
22:00+23вюв1196100 0.3 101215
26 мая, чт
чт2601:00+23всв0196100 0.3 101013
04:00+22всв119662 0.0 100913
07:00+24св1192100 0.0 1011110
10:00+29зюз1166100 0.5 1010824
13:00+29зюз1272100 3.7 1008714
16:00+24всв1292100 7.0 100851
19:00+22всв1298100 25.1 1011105
22:00+22всв1198100 2.1 101221
27 мая, пт
пт2701:00+22в0098100 2.6 101129
04:00+22св1198100 0.4 101020
07:00+22ююв0195100 0.6 101177
10:00+23з119399 0.9 1012288
13:00+24ююз1290100 4.7 1009390
16:00+22ююз0197100 1.4 101057
19:00+22в1298100 3.6 101292
22:00+21вюв1297100 0.3 101260
28 мая, сб
сб2801:00+21юв1297100 0.3 101052
04:00+20вюв2296100 0.0 101081
07:00+22в129499 0.0 1012106
10:00+28вюв1265100 0.0 1011762
13:00+31ююз115786 0.1 10081290
16:00+27зюз1278100 0.4 1007287
19:00+23всв119521 1.0 101019
22:00+22всв119645 1.5 101128